This is the latest recevied weather packets stored in our database for station/object K4CRS-13. If no packets are shown the sender has not sent any weather packets the latest 10 day(s).
| Time | Temp. | Humidity | Pressure | Rain* | Wind** | Luminosity | Snow |
|---|---|---|---|---|---|---|---|
| 1787961735 | 27.78° C | 64% | 1051.9 hPa | 0 mm | - | 18 W/m² | - |
| 1787961434 | 28.33° C | 63% | 1051.7 hPa | 0 mm | - | 23 W/m² | - |
| 1787961133 | 28.89° C | 62% | 1051.7 hPa | 0 mm | - | 28 W/m² | - |
| 1787960826 | 28.89° C | 61% | 1051.6 hPa | 0 mm | - | 33 W/m² | - |
| 1787960521 | 29.44° C | 60% | 1051.4 hPa | 0 mm | - | 39 W/m² | - |
| 1787960220 | 29.44° C | 59% | 1051.6 hPa | 0 mm | - | 48 W/m² | - |
| 1787959915 | 29.44° C | 59% | 1051.7 hPa | 0 mm | - | 60 W/m² | - |
| 1787959611 | 30° C | 58% | 1051.4 hPa | 0 mm | - | 73 W/m² | - |
| 1787959310 | 30° C | 59% | 1051.7 hPa | 0 mm | - | 89 W/m² | - |
| 1787959009 | 30° C | 58% | 1051.5 hPa | 0 mm | - | 102 W/m² | - |
| 1787958705 | 30° C | 59% | 1051.4 hPa | 0 mm | - | 97 W/m² | - |
| 1787958401 | 30° C | 58% | 1051.3 hPa | 0 mm | - | 96 W/m² | - |
| 1787958097 | 30° C | 57% | 1051.5 hPa | 0 mm | - | 98 W/m² | - |
| 1787957795 | 30.56° C | 55% | 1051.5 hPa | 0 mm | - | 111 W/m² | - |
| 1787957491 | 30.56° C | 56% | 1051.2 hPa | 0 mm | - | 131 W/m² | - |
| 1787957191 | 30° C | 58% | 1051.3 hPa | 0 mm | - | 147 W/m² | - |
| 1787956886 | 30° C | 58% | 1051.2 hPa | 0 mm | - | 165 W/m² | - |
| 1787956585 | 30° C | 58% | 1051.6 hPa | 0 mm | - | 166 W/m² | - |
| 1787956280 | 30° C | 57% | 1051.3 hPa | 0 mm | - | 193 W/m² | - |
| 1787955975 | 30° C | 56% | 1051.5 hPa | 0 mm | - | 81 W/m² | - |
| 1787955671 | 30.56° C | 54% | 1051.4 hPa | 0 mm | - | 69 W/m² | - |
| 1787955367 | 31.67° C | 52% | 1051.3 hPa | 0 mm | - | 245 W/m² | - |
| 1787955065 | 31.67° C | 51% | 1051.5 hPa | 0 mm | - | 263 W/m² | - |
| 1787954761 | 31.67° C | 50% | 1051.2 hPa | 0 mm | - | 279 W/m² | - |
| 1787954458 | 31.67° C | 52% | 1051.3 hPa | 0 mm | - | 293 W/m² | - |
* Rain latest hour (hover to see other rain measurements)
** Current wind speed in m/s (hover to see current wind gust speed)